When you browse on this site, cookies collect data to enhance your experience and personalize the content and advertising you see.
Visit our Privacy Policy to learn more. By continuing to use the site, you agree to this use of cookies and data.
  • In Czech Republic
  • List of Countries
  • For 7 days
  • Water Temperature
  • Satellite Maps
  • Weather Map
  • Weather Widgets
  • user-avatar
    Login

    Hourly Weather Limassol

    Today, 20 June, Thursday

    Time Temperature Precipitation Wind Pressure Humidity
    00:00 +25°C° 0 mm 5 mps 761 mmHg 82%
    01:00 +25°C° 0 mm 5 mps 760 mmHg 82%
    02:00 +24°C° 0 mm 6 mps 760 mmHg 83%
    03:00 +25°C° 0 mm 5 mps 760 mmHg 84%
    04:00 +25°C° 0 mm 5 mps 760 mmHg 85%
    05:00 +23°C° 0 mm 4 mps 760 mmHg 86%
    06:00 +26°C° 0 mm 5 mps 760 mmHg 78%
    07:00 +27°C° 0 mm 5 mps 760 mmHg 70%
    08:00 +29°C° 0 mm 5 mps 760 mmHg 62%
    09:00 +30°C° 0 mm 5 mps 760 mmHg 61%
    10:00 +32°C° 0 mm 6 mps 761 mmHg 60%
    11:00 +33°C° 0 mm 7 mps 761 mmHg 58%
    12:00 +33°C° 0 mm 7 mps 761 mmHg 56%
    13:00 +33°C° 0 mm 8 mps 761 mmHg 54%
    14:00 +34°C° 0 mm 8 mps 760 mmHg 52%
    15:00 +33°C° 0 mm 8 mps 760 mmHg 54%
    16:00 +32°C° 0 mm 8 mps 760 mmHg 56%
    17:00 +31°C° 0 mm 8 mps 759 mmHg 58%
    18:00 +29°C° 0 mm 8 mps 760 mmHg 64%
    19:00 +28°C° 0 mm 7 mps 760 mmHg 70%
    20:00 +27°C° 0 mm 7 mps 760 mmHg 76%
    21:00 +26°C° 0 mm 6 mps 760 mmHg 77%
    22:00 +26°C° 0 mm 6 mps 760 mmHg 78%
    23:00 +26°C° 0 mm 5 mps 760 mmHg 79%

    Tomorrow, 21 June, Friday

    Time Temperature Precipitation Wind Pressure Humidity
    00:00 +26°C° 0 mm 5 mps 760 mmHg 76%
    01:00 +25°C° 0 mm 5 mps 760 mmHg 73%
    02:00 +25°C° 0 mm 5 mps 759 mmHg 71%
    03:00 +25°C° 0 mm 4 mps 759 mmHg 71%
    04:00 +25°C° 0 mm 4 mps 760 mmHg 72%
    05:00 +25°C° 0 mm 3 mps 760 mmHg 73%
    06:00 +26°C° 0 mm 3 mps 760 mmHg 67%
    07:00 +28°C° 0 mm 3 mps 760 mmHg 61%
    08:00 +30°C° 0 mm 3 mps 760 mmHg 55%
    09:00 +32°C° 0 mm 4 mps 761 mmHg 54%
    10:00 +33°C° 0 mm 4 mps 761 mmHg 53%
    11:00 +34°C° 0 mm 5 mps 761 mmHg 53%
    12:00 +34°C° 0 mm 5 mps 760 mmHg 53%
    13:00 +34°C° 0 mm 6 mps 760 mmHg 53%
    14:00 +34°C° 0 mm 6 mps 760 mmHg 54%
    15:00 +34°C° 0 mm 6 mps 760 mmHg 54%
    16:00 +34°C° 0 mm 6 mps 759 mmHg 53%
    17:00 +34°C° 0 mm 6 mps 759 mmHg 53%
    18:00 +32°C° 0 mm 6 mps 759 mmHg 59%
    19:00 +30°C° 0 mm 6 mps 759 mmHg 64%
    20:00 +29°C° 0 mm 6 mps 760 mmHg 69%
    21:00 +29°C° 0 mm 5 mps 760 mmHg 71%
    22:00 +28°C° 0 mm 5 mps 760 mmHg 73%
    23:00 +28°C° 0 mm 5 mps 760 mmHg 75%

    Day after tomorrow, 22 June, Saturday

    Time Temperature Precipitation Wind Pressure Humidity
    00:00 +27°C° 0 mm 5 mps 760 mmHg 78%
    01:00 +27°C° 0 mm 4 mps 760 mmHg 81%
    02:00 +26°C° 0 mm 4 mps 759 mmHg 84%
    03:00 +26°C° 0 mm 3 mps 759 mmHg 85%
    04:00 +26°C° 0 mm 3 mps 759 mmHg 86%
    05:00 +25°C° 0 mm 3 mps 760 mmHg 87%
    06:00 +27°C° 0 mm 3 mps 760 mmHg 80%
    07:00 +28°C° 0 mm 2 mps 760 mmHg 72%
    08:00 +30°C° 0 mm 2 mps 761 mmHg 65%
    09:00 +31°C° 0 mm 3 mps 761 mmHg 63%
    10:00 +31°C° 0 mm 3 mps 761 mmHg 61%
    11:00 +33°C° 0 mm 3 mps 761 mmHg 58%
    12:00 +33°C° 0 mm 3 mps 761 mmHg 57%
    13:00 +33°C° 0 mm 4 mps 761 mmHg 56%
    14:00 +33°C° 0 mm 4 mps 760 mmHg 55%
    15:00 +33°C° 0 mm 4 mps 760 mmHg 56%
    16:00 +33°C° 0 mm 4 mps 760 mmHg 56%
    17:00 +33°C° 0 mm 4 mps 760 mmHg 57%
    18:00 +32°C° 0 mm 4 mps 760 mmHg 62%
    19:00 +30°C° 0 mm 4 mps 760 mmHg 68%
    20:00 +29°C° 0 mm 3 mps 760 mmHg 73%
    21:00 +28°C° 0 mm 3 mps 760 mmHg 74%
    22:00 +28°C° 0 mm 2 mps 761 mmHg 75%
    23:00 +28°C° 0 mm 2 mps 761 mmHg 75%

    23 June, Sunday

    Time Temperature Precipitation Wind Pressure Humidity
    00:00 +28°C° 0 mm 2 mps 760 mmHg 77%
    01:00 +27°C° 0 mm 1 mps 760 mmHg 79%
    02:00 +27°C° 0 mm 1 mps 760 mmHg 81%
    03:00 +26°C° 0 mm 1 mps 760 mmHg 82%
    04:00 +26°C° 0 mm 1 mps 760 mmHg 83%
    05:00 +26°C° 0 mm 1 mps 760 mmHg 84%
    06:00 +28°C° 0 mm 1 mps 761 mmHg 77%
    07:00 +29°C° 0 mm 1 mps 761 mmHg 70%
    08:00 +31°C° 0 mm 1 mps 761 mmHg 62%
    09:00 +31°C° 0 mm 2 mps 761 mmHg 61%
    10:00 +32°C° 0 mm 2 mps 762 mmHg 59%
    11:00 +34°C° 0 mm 3 mps 762 mmHg 58%
    12:00 +34°C° 0 mm 3 mps 762 mmHg 56%
    13:00 +34°C° 0 mm 3 mps 762 mmHg 54%
    14:00 +35°C° 0 mm 3 mps 762 mmHg 53%
    15:00 +35°C° 0 mm 4 mps 761 mmHg 51%
    16:00 +35°C° 0 mm 4 mps 761 mmHg 50%
    17:00 +35°C° 0 mm 4 mps 761 mmHg 49%
    18:00 +34°C° 0 mm 4 mps 761 mmHg 53%
    19:00 +33°C° 0 mm 3 mps 761 mmHg 58%
    20:00 +31°C° 0 mm 3 mps 761 mmHg 62%
    21:00 +30°C° 0 mm 3 mps 761 mmHg 63%
    22:00 +30°C° 0 mm 3 mps 761 mmHg 64%
    23:00 +29°C° 0 mm 3 mps 761 mmHg 65%

    24 June, Monday

    Time Temperature Precipitation Wind Pressure Humidity
    00:00 +29°C° 0 mm 3 mps 761 mmHg 64%
    01:00 +29°C° 0 mm 2 mps 761 mmHg 64%
    02:00 +29°C° 0 mm 2 mps 761 mmHg 64%
    03:00 +28°C° 0 mm 2 mps 761 mmHg 64%
    04:00 +28°C° 0 mm 2 mps 760 mmHg 65%
    05:00 +28°C° 0 mm 1 mps 760 mmHg 66%
    06:00 +30°C° 0 mm 1 mps 761 mmHg 58%
    07:00 +32°C° 0 mm 1 mps 761 mmHg 51%
    08:00 +34°C° 0 mm 1 mps 761 mmHg 43%
    09:00 +34°C° 0 mm 1 mps 761 mmHg 43%
    10:00 +36°C° 0 mm 2 mps 761 mmHg 43%
    11:00 +37°C° 0 mm 2 mps 761 mmHg 42%
    12:00 +37°C° 0 mm 3 mps 761 mmHg 41%
    13:00 +38°C° 0 mm 4 mps 761 mmHg 40%
    14:00 +38°C° 0 mm 4 mps 761 mmHg 38%
    15:00 +39°C° 0 mm 5 mps 760 mmHg 38%
    16:00 +39°C° 0 mm 5 mps 760 mmHg 38%
    17:00 +39°C° 0 mm 6 mps 760 mmHg 37%
    18:00 +36°C° 0 mm 5 mps 760 mmHg 42%
    19:00 +35°C° 0 mm 5 mps 760 mmHg 46%
    20:00 +33°C° 0 mm 5 mps 760 mmHg 51%
    21:00 +33°C° 0 mm 4 mps 760 mmHg 51%
    22:00 +33°C° 0 mm 4 mps 760 mmHg 51%
    23:00 +32°C° 0 mm 4 mps 760 mmHg 51%

    25 June, Tuesday

    Time Temperature Precipitation Wind Pressure Humidity
    00:00 +31°C° 0 mm 3 mps 760 mmHg 52%
    01:00 +30°C° 0 mm 3 mps 760 mmHg 52%
    02:00 +30°C° 0 mm 2 mps 759 mmHg 52%
    03:00 +29°C° 0 mm 2 mps 759 mmHg 55%
    04:00 +29°C° 0 mm 2 mps 759 mmHg 58%
    05:00 +28°C° 0 mm 2 mps 759 mmHg 62%
    06:00 +30°C° 0 mm 2 mps 760 mmHg 56%
    07:00 +32°C° 0 mm 2 mps 760 mmHg 50%
    08:00 +35°C° 0 mm 2 mps 760 mmHg 44%
    09:00 +36°C° 0 mm 2 mps 760 mmHg 42%
    10:00 +37°C° 0 mm 2 mps 760 mmHg 40%
    11:00 +37°C° 0 mm 2 mps 760 mmHg 38%
    12:00 +38°C° 0 mm 2 mps 760 mmHg 38%
    13:00 +38°C° 0 mm 3 mps 760 mmHg 37%
    14:00 +38°C° 0 mm 4 mps 760 mmHg 37%
    15:00 +39°C° 0 mm 5 mps 760 mmHg 35%
    16:00 +39°C° 0 mm 6 mps 759 mmHg 33%
    17:00 +40°C° 0 mm 6 mps 759 mmHg 31%
    18:00 +38°C° 0 mm 6 mps 759 mmHg 33%
    19:00 +36°C° 0 mm 6 mps 759 mmHg 36%
    20:00 +34°C° 0 mm 5 mps 759 mmHg 38%
    21:00 +34°C° 0 mm 4 mps 759 mmHg 40%
    22:00 +33°C° 0 mm 4 mps 759 mmHg 42%
    23:00 +31°C° 0 mm 3 mps 759 mmHg 44%
    Show more